TimeCDT,TemperatureF,Dew PointF,Humidity,Sea Level PressureIn,VisibilityMPH,Wind Direction,Wind SpeedMPH,Gust SpeedMPH,PrecipitationIn,Events,Conditions,WindDirDegrees,DateUTC
12:15 AM,74.5,72.9,95,30.05,10.0,Calm,Calm,-,N/A,,Clear,0,2013-08-04 05:15:00
12:35 AM,75.2,73.2,94,30.05,10.0,Calm,Calm,-,N/A,,Clear,0,2013-08-04 05:35:00
12:55 AM,74.3,73.0,96,30.04,10.0,Calm,Calm,-,N/A,,Clear,0,2013-08-04 05:55:00
1:15 AM,75.6,73.0,92,30.04,10.0,Calm,Calm,-,N/A,,Clear,0,2013-08-04 06:15:00
1:35 AM,74.8,73.0,94,30.02,10.0,Calm,Calm,-,N/A,,Clear,0,2013-08-04 06:35:00
1:55 AM,74.3,72.9,95,29.99,10.0,ESE,4.6,-,N/A,,Clear,120,2013-08-04 06:55:00
2:15 AM,75.2,73.6,95,29.98,10.0,SE,5.8,-,N/A,,Clear,130,2013-08-04 07:15:00
2:35 AM,75.4,73.8,95,30.00,10.0,Calm,Calm,-,N/A,,Clear,0,2013-08-04 07:35:00
2:55 AM,74.7,73.4,96,30.01,10.0,Calm,Calm,-,N/A,,Clear,0,2013-08-04 07:55:00
3:15 AM,74.8,73.8,96,30.01,10.0,East,4.6,-,N/A,,Clear,100,2013-08-04 08:15:00
3:35 AM,74.1,73.2,97,30.02,10.0,North,4.6,-,N/A,,Clear,360,2013-08-04 08:35:00
3:55 AM,74.8,73.8,96,30.03,10.0,East,3.5,-,N/A,,Clear,80,2013-08-04 08:55:00
4:15 AM,75.2,74.1,96,30.03,10.0,Calm,Calm,-,N/A,,Clear,0,2013-08-04 09:15:00
4:35 AM,75.6,74.1,95,30.02,10.0,Calm,Calm,-,N/A,,Clear,0,2013-08-04 09:35:00
4:55 AM,75.6,74.1,95,30.03,10.0,NE,3.5,-,N/A,,Clear,50,2013-08-04 09:55:00
5:15 AM,75.4,73.9,95,30.03,10.0,Calm,Calm,-,N/A,,Clear,0,2013-08-04 10:15:00
5:35 AM,75.4,73.9,95,30.04,10.0,Calm,Calm,-,N/A,,Clear,0,2013-08-04 10:35:00
5:55 AM,75.4,73.9,95,30.03,10.0,ESE,3.5,-,N/A,,Scattered Clouds,110,2013-08-04 10:55:00
6:15 AM,75.4,73.9,95,30.04,10.0,NNE,3.5,-,N/A,,Scattered Clouds,30,2013-08-04 11:15:00
6:35 AM,75.6,74.3,96,30.05,10.0,East,3.5,-,N/A,,Scattered Clouds,80,2013-08-04 11:35:00
6:55 AM,75.4,74.3,96,30.05,10.0,ENE,3.5,-,N/A,,Mostly Cloudy,60,2013-08-04 11:55:00
7:15 AM,75.6,74.3,96,30.06,10.0,Calm,Calm,-,N/A,,Mostly Cloudy,0,2013-08-04 12:15:00
7:35 AM,75.7,74.5,96,30.06,10.0,Calm,Calm,-,N/A,,Scattered Clouds,0,2013-08-04 12:35:00
7:55 AM,76.3,74.7,95,30.06,10.0,ESE,4.6,-,N/A,,Scattered Clouds,120,2013-08-04 12:55:00
8:15 AM,77.0,74.8,93,30.07,10.0,Calm,Calm,-,N/A,,Clear,0,2013-08-04 13:15:00
8:35 AM,77.7,75.2,92,30.07,10.0,Calm,Calm,-,N/A,,Clear,0,2013-08-04 13:35:00
8:55 AM,78.3,75.6,91,30.07,10.0,SE,3.5,-,N/A,,Clear,130,2013-08-04 13:55:00
9:15 AM,79.2,75.6,89,30.07,10.0,SSE,4.6,-,N/A,,Clear,150,2013-08-04 14:15:00
9:35 AM,80.8,75.4,84,30.07,10.0,SSE,5.8,-,N/A,,Clear,150,2013-08-04 14:35:00
9:55 AM,81.1,75.2,82,30.08,10.0,South,3.5,-,N/A,,Clear,180,2013-08-04 14:55:00
10:15 AM,81.5,75.2,81,30.08,10.0,SSE,6.9,-,N/A,,Clear,160,2013-08-04 15:15:00
10:35 AM,82.0,75.0,79,30.07,10.0,SSE,5.8,-,N/A,,Clear,160,2013-08-04 15:35:00
10:55 AM,83.8,74.8,74,30.06,10.0,South,5.8,-,N/A,,Mostly Cloudy,170,2013-08-04 15:55:00
11:15 AM,84.7,75.0,72,30.06,10.0,South,9.2,-,N/A,,Scattered Clouds,180,2013-08-04 16:15:00
11:35 AM,85.3,74.8,71,30.05,10.0,SSE,5.8,-,N/A,,Clear,160,2013-08-04 16:35:00
11:55 AM,86.0,75.0,70,30.05,10.0,SSE,3.5,-,N/A,,Clear,150,2013-08-04 16:55:00
12:15 PM,87.4,75.6,68,30.04,10.0,SSE,4.6,-,N/A,,Clear,150,2013-08-04 17:15:00
12:35 PM,88.5,76.1,67,30.04,10.0,South,5.8,-,N/A,,Clear,170,2013-08-04 17:35:00
12:55 PM,88.3,75.6,66,30.03,10.0,SE,3.5,-,N/A,,Clear,140,2013-08-04 17:55:00
1:15 PM,89.8,75.9,64,30.03,10.0,ENE,4.6,-,N/A,,Scattered Clouds,60,2013-08-04 18:15:00
1:35 PM,88.7,76.1,66,30.02,10.0,Calm,Calm,-,N/A,,Mostly Cloudy,0,2013-08-04 18:35:00
1:55 PM,89.6,76.5,65,30.02,10.0,NNE,4.6,-,N/A,,Mostly Cloudy,30,2013-08-04 18:55:00
2:15 PM,89.2,76.3,65,30.02,10.0,NNE,5.8,-,N/A,,Overcast,30,2013-08-04 19:15:00
2:35 PM,88.7,77.0,68,30.01,10.0,NE,8.1,-,N/A,,Mostly Cloudy,40,2013-08-04 19:35:00
2:55 PM,87.6,78.3,74,30.01,10.0,NE,9.2,-,N/A,,Mostly Cloudy,50,2013-08-04 19:55:00
3:15 PM,87.8,78.4,74,30.00,10.0,ENE,9.2,-,N/A,,Scattered Clouds,60,2013-08-04 20:15:00
3:35 PM,88.2,78.6,73,30.00,10.0,ENE,9.2,-,N/A,,Clear,70,2013-08-04 20:35:00
3:55 PM,88.0,79.2,75,30.00,5.0,NE,8.1,-,N/A,Thunderstorm,Haze,50,2013-08-04 20:55:00
4:15 PM,87.4,78.8,75,29.99,10.0,ENE,9.2,-,N/A,,Scattered Clouds,60,2013-08-04 21:15:00
4:35 PM,86.9,78.4,76,29.98,10.0,East,10.4,-,N/A,,Scattered Clouds,80,2013-08-04 21:35:00
4:55 PM,87.8,78.8,75,29.98,10.0,ENE,9.2,-,N/A,,Scattered Clouds,70,2013-08-04 21:55:00
5:15 PM,88.2,79.3,75,29.97,10.0,East,8.1,-,N/A,,Clear,90,2013-08-04 22:15:00
5:35 PM,86.9,78.1,75,29.97,10.0,East,9.2,-,N/A,,Clear,90,2013-08-04 22:35:00
5:55 PM,86.2,77.5,75,29.96,10.0,East,8.1,-,N/A,,Clear,90,2013-08-04 22:55:00
6:15 PM,86.7,78.3,76,29.96,10.0,East,9.2,-,N/A,,Clear,90,2013-08-04 23:15:00
6:35 PM,86.0,79.0,79,29.96,10.0,East,8.1,-,N/A,,Clear,100,2013-08-04 23:35:00
6:55 PM,86.0,79.7,81,29.96,10.0,East,9.2,-,N/A,,Clear,100,2013-08-04 23:55:00
7:15 PM,85.6,78.8,80,29.95,10.0,East,8.1,-,N/A,,Clear,100,2013-08-05 00:15:00
7:35 PM,85.3,78.8,81,29.96,10.0,ESE,8.1,-,N/A,,Clear,110,2013-08-05 00:35:00
7:55 PM,85.1,79.0,82,29.96,10.0,ESE,8.1,-,N/A,,Clear,110,2013-08-05 00:55:00
8:15 PM,83.1,73.0,71,29.96,10.0,ESE,12.7,20.7,N/A,,Clear,120,2013-08-05 01:15:00
8:35 PM,81.5,72.7,74,29.96,10.0,ESE,12.7,16.1,N/A,,Clear,120,2013-08-05 01:35:00
8:55 PM,80.6,72.5,76,29.96,10.0,SE,10.4,-,N/A,,Clear,140,2013-08-05 01:55:00
9:15 PM,79.7,72.0,77,29.96,10.0,SE,9.2,-,N/A,,Clear,140,2013-08-05 02:15:00
9:35 PM,79.3,72.0,78,29.96,10.0,SE,9.2,-,N/A,,Clear,140,2013-08-05 02:35:00
9:55 PM,78.8,71.8,79,29.98,10.0,SE,5.8,-,N/A,,Clear,130,2013-08-05 02:55:00
10:15 PM,78.3,72.1,81,29.98,10.0,SE,5.8,-,N/A,,Clear,130,2013-08-05 03:15:00
10:35 PM,78.3,72.5,82,29.98,10.0,Calm,Calm,-,N/A,,Clear,0,2013-08-05 03:35:00
10:55 PM,77.5,72.7,85,29.98,10.0,Calm,Calm,-,N/A,,Clear,0,2013-08-05 03:55:00
11:15 PM,77.4,72.9,86,29.98,10.0,Calm,Calm,-,N/A,,Clear,0,2013-08-05 04:15:00
11:35 PM,77.0,73.0,88,29.97,10.0,Calm,Calm,-,N/A,,Clear,0,2013-08-05 04:35:00
11:55 PM,76.1,73.4,91,29.97,10.0,Calm,Calm,-,N/A,,Clear,0,2013-08-05 04:55:00